Weather History for KCEW - February, 2014

Change the Weather History Date:

Thursday, February 27, 2014

  Actual Average Record
Temperature  
Mean Temperature 42 °F -  
Max Temperature 55 °F 67 °F 83 °F (1981)
Min Temperature 28 °F 40 °F 21 °F (2002)
Degree Days  
Heating Degree Days 22    
Moisture  
Dew Point 23 °F    
Average Humidity 53    
Maximum Humidity 88    
Minimum Humidity 23    
Precipitation  
Precipitation 0.00 in - - ()
Sea Level Pressure  
Sea Level Pressure 30.04 in    
Wind  
Wind Speed 7 mph (NNW)    
Max Wind Speed 10 mph    
Max Gust Speed 17 mph    
Visibility 10 miles    
Events      
Averages and records for this station are not official NWS values.
T = Trace of Precipitation, MM = Missing Value Source: NWS Daily Summary

Daily Weather History Graph

Daily Weather History Graph

Search for Another Location

Airport or City:

Trip Planner

Search our weather history database for the weather conditions in past years. The results will help you decide how hot, cold, wet, or windy it might be!

Date:

Astronomy

Feb. 27, 2014 Rise Set
Actual Time 6:14 AM CST 5:43 PM CST
Civil Twilight 5:50 AM CST 6:07 PM CST
Nautical Twilight 5:22 AM CST 6:35 PM CST
Astronomical Twilight 4:54 AM CST 7:03 PM CST
Moon 4:41 AM CST (2/27) 4:11 PM CST (2/27)
Length of Visible Light 12h 17m
Length of Day
11h 28m
Waning Crescent, 4% of the Moon is Illuminated
Feb 27
Waning Crescent
Mar 1
New
Mar 8
First Quarter
Mar 16
Full
Mar 23
Last Quarter

Hourly Weather History & Observations

Time (CST) Temp. Windchill Dew Point Humidity Pressure Visibility Wind Dir Wind Speed Gust Speed Precip Events Conditions
12:53 AM 39.9 °F 34.5 °F 30.0 °F 68% 30.01 in 10.0 mi NNW 8.1 mph - N/A   Clear
1:53 AM 39.0 °F 32.8 °F 30.0 °F 70% 30.01 in 10.0 mi NNW 9.2 mph - N/A   Clear
2:53 AM 37.9 °F 32.7 °F 28.9 °F 70% 29.99 in 10.0 mi NNW 6.9 mph - N/A   Clear
3:53 AM 37.9 °F 32.7 °F 28.0 °F 68% 30.02 in 10.0 mi North 6.9 mph - N/A   Clear
4:53 AM 37.0 °F 30.4 °F 26.1 °F 65% 30.03 in 10.0 mi North 9.2 mph - N/A   Clear
5:53 AM 35.1 °F 30.1 °F 23.0 °F 61% 30.05 in 10.0 mi North 5.8 mph - N/A   Clear
6:53 AM 33.1 °F 28.7 °F 19.9 °F 59% 30.07 in 10.0 mi North 4.6 mph - N/A   Clear
7:53 AM 36.0 °F 28.5 °F 18.0 °F 48% 30.09 in 10.0 mi North 10.4 mph 16.1 mph N/A   Clear
8:53 AM 39.9 °F 33.4 °F 16.0 °F 38% 30.08 in 10.0 mi North 10.4 mph - N/A   Clear
9:53 AM 44.1 °F 39.0 °F 14.0 °F 30% 30.08 in 10.0 mi North 9.2 mph - N/A   Clear
10:53 AM 46.9 °F - 14.0 °F 27% 30.07 in 10.0 mi NNW 9.2 mph 17.3 mph N/A   Clear
11:53 AM 50.0 °F - 14.0 °F 24% 30.05 in 10.0 mi North 9.2 mph - N/A   Clear
12:53 PM 53.1 °F - 16.0 °F 23% 30.03 in 10.0 mi NNW 10.4 mph - N/A   Clear
1:53 PM 55.0 °F - 17.1 °F 23% 30.01 in 10.0 mi NNW 10.4 mph - N/A   Clear
2:53 PM 55.0 °F - 17.1 °F 23% 30.00 in 10.0 mi North - - N/A   Clear
3:53 PM 55.9 °F - 18.0 °F 23% 29.99 in 10.0 mi North 6.9 mph - N/A   Clear
4:53 PM 54.0 °F - 18.0 °F 24% 29.99 in 10.0 mi North 5.8 mph - N/A   Clear
5:53 PM 48.0 °F - 25.0 °F 41% 30.00 in 10.0 mi North 3.5 mph - N/A   Clear
6:53 PM 39.0 °F - 32.0 °F 76% 30.02 in 10.0 mi Calm Calm - N/A   Clear
7:53 PM 35.1 °F 32.2 °F 30.9 °F 85% 30.04 in 10.0 mi NW 3.5 mph - N/A   Clear
8:53 PM 37.0 °F 33.3 °F 27.0 °F 67% 30.05 in 10.0 mi NNW 4.6 mph - N/A   Clear
9:53 PM 32.0 °F 28.7 °F 26.1 °F 79% 30.06 in 10.0 mi North 3.5 mph - N/A   Clear
10:53 PM 30.0 °F - 27.0 °F 88% 30.07 in 10.0 mi Calm Calm - N/A   Clear
11:53 PM 28.9 °F - 25.0 °F 85% 30.05 in 10.0 mi Calm Calm - N/A   Clear